sat.trackr.live / text

‹ back to catalog

STARLINK-2029

NORAD 48320 · 2021-036AW

PAYLOAD ACTIVE UNKNOWN

§ Identity

Operator
Country
US
Launch date
2021-04-29
Launch site
AFETR
Launch vehicle
Mass (kg)
RCS (m²)

Purposes: comms

External: N2YO · Heavens-Above · Gunter

§ Orbital elements

Epoch: 2026-09-14T19:52:49.272384Z

Period
94.01 min
Inclination
53.1599°
Eccentricity
0.0001304
Mean motion
15.31702305 rev/d
Perigee alt
469.8 km
Apogee alt
471.6 km
Semi-major
6,848.9 km
B*
3.9944e-5
RAAN
301.2415°
Arg perigee
87.6339°
Mean anomaly
272.4812°
Rev number
29,701

§ Raw data

STARLINK-20291 48320U 21036AW  26257.82834806  .00000875  00000+0  39944-4 0  99922 48320  53.1599 301.2415 0001304  87.6339 272.4812 15.31702305297013

JSON: /api/v1/satellites/48320 · /tle

For live sub-satellite position, see the globe view (requires WebGL).

§ Visibility from observer

Set your observer location to see the next 7 days of passes ≥ 10°. The values pass through the URL so the page stays shareable.

No JS? Fill the form by hand. The geolocation button needs JavaScript.